Regional Weather Roundup
Issued by NWS

Home | Current Version | Previous Version | Text Only | Print | Product List | Glossary Off
Versions: 1 2 3 4 5 6 7 8 9 10 11 12 13 14 15 16 17 18 19 20 21 22 23 24 25 26 27 28 29 30 31 32 33 34 35 36 37 38 39 40 41 42 43 44 45 46 47 48 49 50

000
ASUS45 KBOI 241810
RWRID

IDAHO REGIONAL WEATHER ROUNDUP
NATIONAL WEATHER SERVICE BOISE ID
1200 PM MDT SUN MAY 24 2015

NOTE: "FAIR" INDICATES FEW OR NO CLOUDS BELOW 12000 FEET
WITH NO SIGNIFICANT WEATHER AND/OR OBSTRUCTIONS TO VISIBILITY

IDZ012-014-241900-
SOUTHWEST IDAHO


CITY           SKY/WX    TMP DP  RH WIND       PRES   REMARKS
BOISE          SUNNY     68  48  48 VRB6      29.93F
CALDWELL       SUNNY     70  46  43 NW10      29.94F
MOUNTAIN HOME  SUNNY     67  46  45 SW6       29.93F
$$

IDZ016-017-241900-
SOUTHCENTRAL IDAHO


CITY           SKY/WX    TMP DP  RH WIND       PRES   REMARKS
BURLEY         CLOUDY    58  48  69 SW5       29.96F
JEROME         MOSUNNY   62  47  57 SW8       29.96F
TWIN FALLS     PTSUNNY   64  49  57 SW9       29.94F
$$

IDZ019>023-241900-
SOUTHEAST IDAHO


CITY           SKY/WX    TMP DP  RH WIND       PRES   REMARKS
IDAHO FALLS    PTSUNNY   61  44  53 N10       29.95F
POCATELLO      PTSUNNY   59  50  72 N5        29.98S
REXBURG        PTSUNNY   60  39  45 N9        29.94F
$$

IDZ006-010-011-018-031-032-241900-
CENTRAL IDAHO MOUNTAINS


CITY           SKY/WX    TMP DP  RH WIND       PRES   REMARKS
MCCALL         PTSUNNY   60  42  51 VRB6      29.97F
HAILEY         MOSUNNY   57  48  72 SE10      29.98F
STANLEY          N/A     59  36  42 VRB6      30.01F
SALMON         PTSUNNY   61  43  51 N6        29.98F
CHALLIS        PTSUNNY   65  38  36 N9        29.97F
$$

IDZ002-004-006-007-026-241900-
NORTHERN IDAHO


CITY           SKY/WX    TMP DP  RH WIND       PRES   REMARKS
LEWISTON       SUNNY     71  54  54 VRB3      29.96F
LOWELL           N/A     65  49  56 CALM      29.95F
COEUR D`ALENE  SUNNY     73  46  38 CALM      29.95F
MULLAN PASS    PTSUNNY   52  35  52 VRB3      30.08F
$$


USA.gov is the U.S. government's official web portal to all federal, state and local government web resources and services.